Time,TemperatureF,DewpointF,PressureIn,WindDirection,WindDirectionDegrees,WindSpeedMPH,WindSpeedGustMPH,Humidity,HourlyPrecipIn,Conditions,Clouds,dailyrainin,SoftwareType,DateUTC
2013-04-28 00:03:00,56.0,-99.9,-100.00,ENE,65,1.0,4.0,44,0.00,,,-99.99,,2013-04-28 04:03:00,
2013-04-28 00:13:00,58.0,35.0,-100.00,East,85,2.0,4.0,42,0.00,,,-99.99,,2013-04-28 04:13:00,
2013-04-28 00:23:00,60.0,31.0,-100.00,ESE,105,2.0,6.0,33,0.00,,,-99.99,,2013-04-28 04:23:00,
2013-04-28 00:32:00,61.0,32.0,-100.00,East,85,4.0,7.0,33,0.00,,,-99.99,,2013-04-28 04:32:00,
2013-04-28 00:42:00,61.0,32.0,-100.00,East,100,4.0,10.0,33,0.00,,,-99.99,,2013-04-28 04:42:00,
2013-04-28 00:53:00,61.0,33.0,-100.00,ESE,115,6.0,11.0,34,0.00,,,-99.99,,2013-04-28 04:53:00,
2013-04-28 01:02:00,61.0,33.0,-100.00,ESE,120,6.0,12.0,34,0.00,,,-99.99,,2013-04-28 05:02:00,
2013-04-28 01:12:00,61.0,33.0,-100.00,ESE,120,4.0,11.0,35,0.00,,,-99.99,,2013-04-28 05:12:00,
2013-04-28 01:22:00,60.0,33.0,-100.00,ESE,115,4.0,11.0,35,0.00,,,-99.99,,2013-04-28 05:22:00,
2013-04-28 01:32:00,60.0,33.0,-100.00,ESE,115,3.0,9.0,36,0.00,,,-99.99,,2013-04-28 05:32:00,
2013-04-28 01:42:00,60.0,33.0,-100.00,ESE,115,4.0,10.0,36,0.00,,,-99.99,,2013-04-28 05:42:00,
2013-04-28 01:52:00,60.0,35.0,-100.00,SE,130,4.0,10.0,38,0.00,,,-99.99,,2013-04-28 05:52:00,
2013-04-28 02:01:00,60.0,35.0,-100.00,ESE,115,3.0,9.0,39,0.00,,,-99.99,,2013-04-28 06:01:00,
2013-04-28 02:12:00,59.0,35.0,-100.00,SE,130,4.0,11.0,40,0.00,,,-99.99,,2013-04-28 06:12:00,
2013-04-28 02:21:00,59.0,35.0,-100.00,ESE,120,4.0,9.0,40,0.00,,,-99.99,,2013-04-28 06:21:00,
2013-04-28 02:32:00,59.0,36.0,-100.00,SSE,155,5.0,9.0,42,0.00,,,-99.99,,2013-04-28 06:32:00,
2013-04-28 02:42:00,59.0,36.0,-100.00,SE,130,7.0,11.0,41,0.00,,,-99.99,,2013-04-28 06:42:00,
2013-04-28 02:51:00,58.0,36.0,-100.00,SE,135,7.0,12.0,42,0.00,,,-99.99,,2013-04-28 06:51:00,
2013-04-28 03:01:00,58.0,36.0,-100.00,SSE,160,4.0,12.0,44,0.00,,,-99.99,,2013-04-28 07:01:00,
2013-04-28 03:11:00,58.0,36.0,-100.00,SE,135,4.0,9.0,43,0.00,,,-99.99,,2013-04-28 07:11:00,
2013-04-28 03:21:00,57.0,36.0,-100.00,SE,135,4.0,7.0,44,0.00,,,-99.99,,2013-04-28 07:21:00,
2013-04-28 03:32:00,57.0,36.0,-100.00,SSE,150,3.0,6.0,46,0.00,,,-99.99,,2013-04-28 07:32:00,
2013-04-28 03:42:00,56.0,36.0,-100.00,SE,135,2.0,5.0,46,0.00,,,-99.99,,2013-04-28 07:42:00,
2013-04-28 03:52:00,56.0,36.0,-100.00,SE,130,2.0,6.0,46,0.00,,,-99.99,,2013-04-28 07:52:00,
2013-04-28 04:02:00,56.0,36.0,-100.00,SE,130,3.0,8.0,47,0.00,,,-99.99,,2013-04-28 08:02:00,
2013-04-28 04:11:00,56.0,36.0,-100.00,SE,130,3.0,7.0,47,0.00,,,-99.99,,2013-04-28 08:11:00,
2013-04-28 04:21:00,56.0,37.0,-100.00,SE,140,3.0,6.0,48,0.00,,,-99.99,,2013-04-28 08:21:00,
2013-04-28 04:32:00,56.0,37.0,-100.00,ESE,115,2.0,6.0,48,0.00,,,-99.99,,2013-04-28 08:32:00,
2013-04-28 04:42:00,55.0,37.0,-100.00,SE,125,2.0,6.0,49,0.00,,,-99.99,,2013-04-28 08:42:00,
2013-04-28 04:52:00,56.0,37.0,-100.00,East,100,1.0,4.0,48,0.00,,,-99.99,,2013-04-28 08:52:00,
2013-04-28 05:01:00,56.0,37.0,-100.00,ESE,115,1.0,6.0,48,0.00,,,-99.99,,2013-04-28 09:01:00,
2013-04-28 05:11:00,55.0,37.0,-100.00,ESE,115,1.0,6.0,49,0.00,,,-99.99,,2013-04-28 09:11:00,
2013-04-28 05:21:00,55.0,37.0,-100.00,East,95,1.0,5.0,49,0.00,,,-99.99,,2013-04-28 09:21:00,
2013-04-28 05:33:00,55.0,37.0,-100.00,SE,125,2.0,6.0,49,0.00,,,-99.99,,2013-04-28 09:33:00,
2013-04-28 05:42:00,55.0,37.0,-100.00,ESE,115,1.0,5.0,50,0.00,,,-99.99,,2013-04-28 09:42:00,
2013-04-28 05:53:00,55.0,37.0,-100.00,ESE,105,2.0,6.0,50,0.00,,,-99.99,,2013-04-28 09:53:00,
2013-04-28 06:03:00,55.0,37.0,-100.00,East,80,2.0,5.0,51,0.00,,,-99.99,,2013-04-28 10:03:00,
2013-04-28 06:12:00,55.0,37.0,-100.00,ESE,105,2.0,6.0,50,0.00,,,-99.99,,2013-04-28 10:12:00,
2013-04-28 06:22:00,55.0,38.0,-100.00,East,85,2.0,7.0,51,0.00,,,-99.99,,2013-04-28 10:22:00,
2013-04-28 06:32:00,55.0,38.0,-100.00,ENE,75,3.0,6.0,52,0.00,,,-99.99,,2013-04-28 10:32:00,
2013-04-28 06:42:00,55.0,38.0,-100.00,East,85,1.0,6.0,52,0.00,,,-99.99,,2013-04-28 10:42:00,
2013-04-28 06:52:00,55.0,38.0,-100.00,ESE,115,2.0,6.0,52,0.00,,,-99.99,,2013-04-28 10:52:00,
2013-04-28 07:02:00,55.0,38.0,-100.00,East,95,3.0,6.0,52,0.00,,,-99.99,,2013-04-28 11:02:00,
2013-04-28 07:11:00,55.0,38.0,-100.00,ESE,115,3.0,9.0,52,0.00,,,-99.99,,2013-04-28 11:11:00,
2013-04-28 07:22:00,56.0,38.0,-100.00,ESE,105,3.0,7.0,52,0.00,,,-99.99,,2013-04-28 11:22:00,
2013-04-28 07:32:00,56.0,38.0,-100.00,ESE,105,3.0,11.0,52,0.00,,,-99.99,,2013-04-28 11:32:00,
2013-04-28 07:42:00,56.0,38.0,-100.00,ESE,120,2.0,8.0,52,0.00,,,-99.99,,2013-04-28 11:42:00,
2013-04-28 07:52:00,56.0,39.0,-100.00,ESE,115,4.0,9.0,52,0.00,,,-99.99,,2013-04-28 11:52:00,
2013-04-28 08:02:00,56.0,39.0,-100.00,ESE,110,4.0,8.0,52,0.00,,,-99.99,,2013-04-28 12:02:00,
2013-04-28 08:12:00,56.0,39.0,-100.00,ESE,115,4.0,12.0,51,0.00,,,-99.99,,2013-04-28 12:12:00,
2013-04-28 08:21:00,57.0,39.0,-100.00,SE,135,4.0,9.0,51,0.00,,,-99.99,,2013-04-28 12:21:00,
2013-04-28 08:32:00,57.0,39.0,-100.00,ESE,105,4.0,12.0,51,0.00,,,-99.99,,2013-04-28 12:32:00,
2013-04-28 08:42:00,57.0,40.0,-100.00,ESE,115,6.0,12.0,51,0.00,,,-99.99,,2013-04-28 12:42:00,
2013-04-28 08:52:00,57.0,39.0,-100.00,East,100,2.0,9.0,51,0.00,,,-99.99,,2013-04-28 12:52:00,
2013-04-28 09:02:00,57.0,40.0,-100.00,SE,135,3.0,10.0,52,0.00,,,-99.99,,2013-04-28 13:02:00,
2013-04-28 09:11:00,57.0,40.0,-100.00,ESE,110,4.0,9.0,51,0.00,,,-99.99,,2013-04-28 13:11:00,
2013-04-28 09:21:00,58.0,40.0,-100.00,ESE,120,4.0,9.0,51,0.00,,,-99.99,,2013-04-28 13:21:00,
2013-04-28 09:32:00,58.0,40.0,-100.00,SE,145,1.0,9.0,51,0.00,,,-99.99,,2013-04-28 13:32:00,
2013-04-28 09:42:00,58.0,41.0,-100.00,East,100,3.0,9.0,51,0.00,,,-99.99,,2013-04-28 13:42:00,
2013-04-28 09:52:00,59.0,40.0,-100.00,SE,135,4.0,12.0,50,0.00,,,-99.99,,2013-04-28 13:52:00,
2013-04-28 10:02:00,59.0,40.0,-100.00,SE,135,6.0,11.0,51,0.00,,,-99.99,,2013-04-28 14:02:00,
2013-04-28 10:11:00,58.0,42.0,-100.00,SE,130,7.0,14.0,53,0.00,,,-99.99,,2013-04-28 14:11:00,
2013-04-28 10:22:00,58.0,42.0,-100.00,SSE,155,6.0,16.0,53,0.00,,,-99.99,,2013-04-28 14:22:00,
2013-04-28 10:32:00,58.0,42.0,-100.00,SE,140,10.0,22.0,54,0.00,,,-99.99,,2013-04-28 14:32:00,
2013-04-28 10:42:00,58.0,43.0,-100.00,SE,140,9.0,16.0,57,0.00,,,-99.99,,2013-04-28 14:42:00,
2013-04-28 10:52:00,57.0,43.0,-100.00,SE,135,11.0,19.0,59,0.00,,,-99.99,,2013-04-28 14:52:00,
2013-04-28 11:02:00,56.0,45.0,-100.00,SE,130,9.0,17.0,64,0.00,,,-99.99,,2013-04-28 15:02:00,
2013-04-28 11:12:00,56.0,45.0,-100.00,SE,125,9.0,14.0,66,0.00,,,-99.99,,2013-04-28 15:12:00,
2013-04-28 11:21:00,55.0,46.0,-100.00,SE,140,9.0,17.0,70,0.00,,,-99.99,,2013-04-28 15:21:00,
2013-04-28 11:32:00,55.0,46.0,-100.00,SE,135,8.0,18.0,73,0.00,,,-99.99,,2013-04-28 15:32:00,
2013-04-28 11:42:00,54.0,47.0,-100.00,SE,130,6.0,13.0,76,0.00,,,-99.99,,2013-04-28 15:42:00,
2013-04-28 11:53:00,54.0,47.0,-100.00,ESE,115,8.0,16.0,77,0.00,,,-99.99,,2013-04-28 15:53:00,
2013-04-28 12:03:00,54.0,48.0,-100.00,ESE,115,5.0,14.0,78,0.00,,,-99.99,,2013-04-28 16:03:00,
2013-04-28 12:13:00,54.0,48.0,-100.00,SE,145,7.0,16.0,78,0.00,,,-99.99,,2013-04-28 16:13:00,
2013-04-28 12:23:00,54.0,48.0,-100.00,ESE,115,8.0,16.0,78,0.00,,,-99.99,,2013-04-28 16:23:00,
2013-04-28 12:33:00,54.0,48.0,-100.00,SE,125,7.0,19.0,80,0.00,,,-99.99,,2013-04-28 16:33:00,
2013-04-28 12:42:00,54.0,48.0,-100.00,ESE,110,9.0,14.0,81,0.00,,,-99.99,,2013-04-28 16:42:00,
2013-04-28 12:52:00,54.0,49.0,-100.00,ESE,120,10.0,19.0,82,0.00,,,-99.99,,2013-04-28 16:52:00,
2013-04-28 13:02:00,54.0,49.0,-100.00,SE,130,9.0,16.0,83,0.00,,,-99.99,,2013-04-28 17:02:00,
2013-04-28 13:12:00,54.0,49.0,-100.00,SE,130,11.0,16.0,84,0.00,,,-99.99,,2013-04-28 17:12:00,
2013-04-28 13:22:00,54.0,49.0,-100.00,ESE,105,7.0,16.0,84,0.00,,,-99.99,,2013-04-28 17:22:00,
2013-04-28 13:32:00,54.0,50.0,-100.00,SE,135,11.0,17.0,86,0.00,,,-99.99,,2013-04-28 17:32:00,
2013-04-28 13:42:00,54.0,50.0,-100.00,ESE,115,7.0,14.0,87,0.00,,,-99.99,,2013-04-28 17:42:00,
2013-04-28 13:52:00,54.0,50.0,-100.00,ESE,120,8.0,13.0,87,0.00,,,-99.99,,2013-04-28 17:52:00,
2013-04-28 14:02:00,54.0,50.0,-100.00,SE,135,7.0,14.0,87,0.00,,,-99.99,,2013-04-28 18:02:00,
2013-04-28 14:12:00,54.0,50.0,-100.00,SE,135,6.0,12.0,88,0.00,,,-99.99,,2013-04-28 18:12:00,
2013-04-28 14:22:00,54.0,51.0,-100.00,East,100,6.0,14.0,88,0.00,,,-99.99,,2013-04-28 18:22:00,
2013-04-28 14:32:00,54.0,51.0,-100.00,SSE,150,6.0,14.0,88,0.00,,,-99.99,,2013-04-28 18:32:00,
2013-04-28 14:42:00,54.0,51.0,-100.00,ESE,115,7.0,16.0,88,0.00,,,-99.99,,2013-04-28 18:42:00,
2013-04-28 14:52:00,54.0,51.0,-100.00,ESE,115,6.0,14.0,88,0.00,,,-99.99,,2013-04-28 18:52:00,
2013-04-28 15:02:00,54.0,51.0,-100.00,SE,145,8.0,11.0,88,0.00,,,-99.99,,2013-04-28 19:02:00,
2013-04-28 15:11:00,54.0,51.0,-100.00,ESE,120,4.0,16.0,88,0.00,,,-99.99,,2013-04-28 19:11:00,
2013-04-28 15:22:00,54.0,51.0,-100.00,SE,145,9.0,12.0,88,0.00,,,-99.99,,2013-04-28 19:22:00,
2013-04-28 15:32:00,54.0,51.0,-100.00,SE,135,7.0,14.0,88,0.00,,,-99.99,,2013-04-28 19:32:00,
2013-04-28 15:42:00,54.0,51.0,-100.00,SE,135,4.0,11.0,88,0.00,,,-99.99,,2013-04-28 19:42:00,
2013-04-28 15:52:00,55.0,51.0,-100.00,SSE,155,5.0,12.0,88,0.00,,,-99.99,,2013-04-28 19:52:00,
2013-04-28 16:02:00,55.0,51.0,-100.00,SE,125,7.0,15.0,88,0.00,,,-99.99,,2013-04-28 20:02:00,
2013-04-28 16:12:00,55.0,51.0,-100.00,SE,130,7.0,14.0,88,0.00,,,-99.99,,2013-04-28 20:12:00,
2013-04-28 16:22:00,55.0,51.0,-100.00,SE,140,4.0,13.0,88,0.00,,,-99.99,,2013-04-28 20:22:00,
2013-04-28 16:32:00,55.0,51.0,-100.00,SE,135,9.0,13.0,88,0.00,,,-99.99,,2013-04-28 20:32:00,
2013-04-28 16:42:00,55.0,51.0,-100.00,SE,125,9.0,12.0,88,0.00,,,-99.99,,2013-04-28 20:42:00,
2013-04-28 16:52:00,55.0,51.0,-100.00,SE,125,5.0,11.0,88,0.00,,,-99.99,,2013-04-28 20:52:00,
2013-04-28 17:01:00,55.0,52.0,-100.00,SE,130,4.0,10.0,88,0.00,,,-99.99,,2013-04-28 21:01:00,
2013-04-28 17:11:00,55.0,52.0,-100.00,ESE,120,3.0,9.0,88,0.00,,,-99.99,,2013-04-28 21:11:00,
2013-04-28 17:22:00,55.0,52.0,-100.00,SE,140,6.0,9.0,88,0.00,,,-99.99,,2013-04-28 21:22:00,
2013-04-28 17:33:00,55.0,52.0,-100.00,SE,130,4.0,9.0,88,0.00,,,-99.99,,2013-04-28 21:33:00,
2013-04-28 17:42:00,55.0,52.0,-100.00,SE,140,6.0,11.0,88,0.00,,,-99.99,,2013-04-28 21:42:00,
2013-04-28 17:52:00,55.0,52.0,-100.00,SE,145,7.0,14.0,88,0.00,,,-99.99,,2013-04-28 21:52:00,
2013-04-28 18:03:00,55.0,52.0,-100.00,SE,145,7.0,12.0,87,0.00,,,-99.99,,2013-04-28 22:03:00,
2013-04-28 18:12:00,56.0,52.0,-100.00,SE,135,6.0,19.0,87,0.00,,,-99.99,,2013-04-28 22:12:00,
2013-04-28 18:23:00,56.0,52.0,-100.00,ESE,115,7.0,14.0,86,0.00,,,-99.99,,2013-04-28 22:23:00,
2013-04-28 18:33:00,56.0,52.0,-100.00,ESE,110,7.0,12.0,86,0.00,,,-99.99,,2013-04-28 22:33:00,
2013-04-28 18:42:00,56.0,52.0,-100.00,SSE,155,6.0,12.0,86,0.00,,,-99.99,,2013-04-28 22:42:00,
2013-04-28 18:52:00,55.0,51.0,-100.00,SE,135,6.0,14.0,86,0.00,,,-99.99,,2013-04-28 22:52:00,
2013-04-28 19:02:00,55.0,51.0,-100.00,ESE,115,4.0,16.0,87,0.00,,,-99.99,,2013-04-28 23:02:00,
2013-04-28 19:12:00,55.0,51.0,-100.00,SE,140,4.0,10.0,87,0.00,,,-99.99,,2013-04-28 23:12:00,
2013-04-28 19:22:00,55.0,51.0,-100.00,SE,145,6.0,9.0,87,0.00,,,-99.99,,2013-04-28 23:22:00,
2013-04-28 19:32:00,55.0,51.0,-100.00,SE,145,6.0,10.0,87,0.00,,,-99.99,,2013-04-28 23:32:00,
2013-04-28 19:42:00,55.0,51.0,-100.00,ESE,120,4.0,9.0,88,0.00,,,-99.99,,2013-04-28 23:42:00,
2013-04-28 19:52:00,55.0,51.0,-100.00,SE,125,4.0,10.0,88,0.00,,,-99.99,,2013-04-28 23:52:00,
2013-04-28 20:01:00,55.0,51.0,-100.00,SE,135,5.0,10.0,88,0.00,,,-99.99,,2013-04-29 00:01:00,
2013-04-28 20:11:00,55.0,51.0,-100.00,SE,130,5.0,10.0,88,0.00,,,-99.99,,2013-04-29 00:11:00,
2013-04-28 20:22:00,55.0,51.0,-100.00,ESE,120,4.0,7.0,89,0.00,,,-99.99,,2013-04-29 00:22:00,
2013-04-28 20:32:00,55.0,51.0,-100.00,SE,145,4.0,7.0,89,0.00,,,-99.99,,2013-04-29 00:32:00,
2013-04-28 20:42:00,55.0,51.0,-100.00,SE,125,3.0,8.0,89,0.00,,,-99.99,,2013-04-29 00:42:00,
2013-04-28 20:52:00,54.0,51.0,-100.00,ESE,120,5.0,10.0,89,0.00,,,-99.99,,2013-04-29 00:52:00,
2013-04-28 21:01:00,54.0,51.0,-100.00,ESE,105,2.0,11.0,89,0.00,,,-99.99,,2013-04-29 01:01:00,
2013-04-28 21:12:00,54.0,51.0,-100.00,SE,130,4.0,9.0,89,0.00,,,-99.99,,2013-04-29 01:12:00,
2013-04-28 21:21:00,54.0,51.0,-100.00,SE,125,7.0,11.0,89,0.00,,,-99.99,,2013-04-29 01:21:00,
2013-04-28 21:32:00,54.0,51.0,-100.00,SE,125,6.0,11.0,89,0.00,,,-99.99,,2013-04-29 01:32:00,
2013-04-28 21:42:00,54.0,51.0,-100.00,SSE,150,6.0,12.0,89,0.00,,,-99.99,,2013-04-29 01:42:00,
2013-04-28 21:52:00,54.0,51.0,-100.00,SE,135,4.0,16.0,88,0.00,,,-99.99,,2013-04-29 01:52:00,
2013-04-28 22:02:00,54.0,51.0,-100.00,East,100,4.0,11.0,88,0.00,,,-99.99,,2013-04-29 02:02:00,
2013-04-28 22:11:00,54.0,51.0,-100.00,ESE,120,7.0,12.0,88,0.00,,,-99.99,,2013-04-29 02:11:00,
2013-04-28 22:22:00,54.0,51.0,-100.00,ESE,120,6.0,16.0,88,0.00,,,-99.99,,2013-04-29 02:22:00,
2013-04-28 22:32:00,54.0,51.0,-100.00,ESE,120,6.0,11.0,87,0.00,,,-99.99,,2013-04-29 02:32:00,
2013-04-28 22:42:00,54.0,51.0,-100.00,ESE,120,5.0,13.0,87,0.00,,,-99.99,,2013-04-29 02:42:00,
2013-04-28 22:51:00,54.0,51.0,-100.00,SE,125,9.0,15.0,87,0.00,,,-99.99,,2013-04-29 02:51:00,
2013-04-28 23:01:00,54.0,50.0,-100.00,ESE,120,7.0,13.0,87,0.00,,,-99.99,,2013-04-29 03:01:00,
2013-04-28 23:12:00,54.0,50.0,-100.00,SE,135,6.0,10.0,87,0.00,,,-99.99,,2013-04-29 03:12:00,
2013-04-28 23:21:00,54.0,50.0,-100.00,SE,135,5.0,12.0,87,0.00,,,-99.99,,2013-04-29 03:21:00,
2013-04-28 23:33:00,54.0,50.0,-100.00,SE,135,6.0,12.0,87,0.00,,,-99.99,,2013-04-29 03:33:00,
2013-04-28 23:42:00,54.0,50.0,-100.00,SE,135,6.0,12.0,87,0.00,,,-99.99,,2013-04-29 03:42:00,
2013-04-28 23:52:00,54.0,50.0,-100.00,ESE,115,6.0,12.0,87,0.00,,,-99.99,,2013-04-29 03:52:00,